Wind_Speed
42 43 44 44 43 42 41 41 42 42 43 43 44 44 43 43 43 43 42 41 39 38 36 36 36 35 35 35 34 35 35 36 36 35 34 34 34 34 34 34 34 34 34
44 44 45 46 46 45 45 44 44 45 45 46 46 46 46 46 46 46 46 43 41 40 39 39 39 39 38 37 36 36 37 37 37 36 36 35 36 36 36 35 35 35 35
45 46 46 47 47 47 47 47 47 48 48 49 49 49 49 48 49 48 47 45 44 43 43 43 43 42 41 40 39 38 38 38 38 38 37 37 38 38 37 37 36 36 36
44 45 46 47 48 48 48 49 49 50 50 52 53 53 51 50 49 49 49 49 48 47 47 46 46 45 44 43 42 41 40 40 40 39 39 40 40 40 39 39 39 39 39
42 43 44 45 47 48 49 50 51 52 53 54 55 56 56 54 53 52 51 50 50 49 49 48 48 47 47 46 45 44 43 43 42 42 42 42 42 42 41 41 41 41 41
39 40 41 43 44 46 48 50 51 52 54 55 57 58 58 58 57 56 54 53 52 51 50 50 50 49 49 49 48 47 46 45 45 44 44 44 44 44 44 43 43 43 43
38 39 40 42 44 45 48 50 52 54 56 57 59 60 61 61 61 60 58 57 55 53 52 51 51 51 51 51 50 49 48 47 46 46 46 46 46 45 46 46 45 45 45
37 39 41 43 45 47 49 52 54 57 59 61 63 64 64 65 65 65 64 62 59 57 55 54 54 54 53 52 51 51 50 49 48 48 47 47 47 47 47 47 48 47 47
36 38 41 43 45 48 51 54 56 59 61 64 66 68 69 69 69 69 68 66 64 62 59 58 57 56 55 53 53 52 51 50 49 49 48 48 48 48 48 49 50 49 50
35 37 40 43 45 48 51 54 57 59 62 65 67 69 70 71 72 72 71 70 68 66 64 61 59 57 56 55 54 53 52 51 50 50 50 50 51 50 50 51 52 52 52
32 34 37 40 43 46 50 54 57 59 62 64 66 67 69 70 72 72 72 71 70 69 66 63 61 59 58 57 56 53 52 51 51 50 50 51 52 52 51 53 54 55 55
30 32 35 38 41 45 49 53 56 59 61 61 62 63 64 66 67 68 68 68 68 67 65 64 61 60 58 57 55 53 52 51 51 50 51 51 52 53 55 55 56 57 59
28 31 33 36 40 44 48 51 53 53 53 53 54 54 55 57 59 61 62 63 63 63 62 61 59 58 56 55 53 52 51 50 50 50 50 52 53 56 57 58 58 61 64
28 30 31 34 38 42 45 45 43 42 41 40 41 42 43 45 47 50 53 55 56 58 57 56 55 54 53 52 51 50 49 49 48 49 51 53 55 57 60 61 62 64 66
26 27 28 31 36 38 39 38 35 33 30 27 26 28 30 33 36 39 42 44 46 48 49 49 49 49 49 48 48 47 47 47 48 49 51 54 56 58 61 62 64 66 68
23 25 26 29 32 33 33 32 29 25 21 17 16 17 19 22 25 28 30 33 35 37 39 42 42 43 43 44 44 44 45 46 47 49 52 54 56 59 61 62 64 66 68
21 23 23 25 28 29 28 27 24 20 15 11 10 10 12 15 16 17 20 23 25 28 31 34 36 38 39 40 41 41 43 44 47 49 52 53 55 56 59 61 63 66 68
20 20 21 22 24 25 25 24 22 17 13 9 5 5 6 8 11 12 15 17 20 23 25 28 30 33 35 36 36 38 40 42 46 47 49 51 53 55 58 61 64 66 69
18 19 19 20 21 21 22 22 20 17 13 10 5 1 2 4 7 9 13 16 18 18 20 23 26 27 29 32 34 37 39 41 44 46 47 50 53 56 59 62 64 67 70
17 18 18 18 18 18 19 20 18 17 14 11 8 5 2 3 5 6 8 10 12 15 18 19 22 25 28 30 32 33 34 37 41 43 47 50 54 57 60 63 66 68 70
17 17 17 16 16 16 17 18 17 16 14 12 10 8 5 3 2 3 4 6 9 12 14 17 19 22 24 25 27 30 33 36 40 44 48 52 57 60 63 66 67 68 68
16 16 15 14 14 14 15 16 15 15 13 11 9 8 6 4 2 1 3 5 7 10 12 15 17 18 21 24 27 31 34 38 42 47 51 55 59 62 64 64 65 64 62
15 14 13 12 12 12 13 13 14 14 14 12 11 9 7 6 4 3 3 5 7 9 12 14 17 19 22 26 29 33 36 41 45 50 54 57 60 61 61 60 58 55 52
14 13 12 10 10 10 11 12 12 12 12 12 11 10 9 8 7 7 7 8 10 12 14 16 19 22 25 28 32 35 40 45 49 53 56 58 59 58 56 53 50 48 44
14 13 11 10 9 9 10 10 11 11 12 12 11 11 10 10 10 10 11 12 13 15 17 19 22 25 28 31 35 39 43 48 52 54 56 56 55 52 49 47 44 41 36
14 12 11 10 9 9 10 10 11 12 13 13 13 13 13 13 13 13 14 15 16 18 20 22 25 28 32 35 38 43 47 50 52 53 53 53 50 48 46 43 40 36 32
Wind_Direction
257 257 258 257 256 255 254 253 253 254 255 256 257 257 258 258 259 259 259 260 261 263 266 267 269 270 270 271 273 275 278 280 282 285 287 290 292 293 294 295 294 294 294
258 258 258 258 258 258 257 256 256 256 256 256 256 257 257 257 257 258 259 261 262 263 264 265 266 268 269 271 272 275 277 279 281 283 285 288 290 292 293 294 294 295 295
258 259 260 260 261 261 261 260 259 258 258 258 257 257 256 256 257 258 259 260 260 260 260 261 263 265 268 270 272 274 275 277 279 281 283 286 288 290 292 293 293 294 295
261 261 262 262 262 262 262 261 261 261 260 259 258 258 257 256 256 256 256 256 256 257 259 260 262 265 267 270 271 273 274 276 278 280 283 285 287 288 289 291 292 293 294
262 263 264 265 265 265 264 264 263 262 262 261 260 259 259 258 256 255 255 255 256 258 259 260 262 264 266 268 270 272 273 275 277 280 282 284 285 286 287 288 290 291 293
263 264 265 266 267 268 268 268 267 266 266 265 263 262 260 259 258 256 255 255 255 256 257 259 261 263 265 267 269 270 272 274 277 279 281 282 284 285 286 286 287 289 290
264 266 267 268 269 270 270 270 269 268 267 266 265 263 262 260 259 258 256 255 255 255 256 257 259 261 263 265 268 270 272 274 276 278 280 280 282 283 284 285 286 287 288
266 268 270 271 272 272 272 271 270 269 267 266 264 263 261 260 259 258 257 256 255 254 254 255 257 259 262 264 267 269 271 273 276 278 279 280 281 282 283 284 284 285 287
269 271 273 273 274 273 272 272 270 269 267 265 263 261 260 258 257 256 256 256 255 254 253 254 256 258 260 262 265 267 270 272 274 276 278 279 281 281 282 283 282 284 286
273 275 276 277 277 277 276 275 273 271 268 266 263 261 259 257 256 255 254 254 254 253 253 253 254 255 257 260 263 265 268 271 273 275 277 279 280 280 281 284 283 283 286
280 282 283 284 285 284 283 281 279 276 272 268 265 261 258 256 254 253 252 252 252 253 253 252 252 254 255 258 261 264 267 270 272 275 277 278 280 279 281 281 283 284 286
290 291 292 293 293 293 292 289 285 282 277 272 267 263 258 255 253 251 250 250 250 251 252 252 252 253 254 257 259 262 265 268 272 274 276 278 280 280 280 281 284 285 287
297 299 299 300 301 302 301 298 294 288 283 275 269 263 258 253 252 250 249 248 248 248 250 251 252 253 254 255 258 262 265 268 271 274 276 278 279 280 281 283 284 286 288
302 304 305 308 311 311 312 310 303 297 290 281 271 263 256 252 251 249 248 247 247 247 247 249 250 251 253 255 257 261 264 267 270 273 275 276 278 280 282 284 285 287 289
308 312 315 318 319 320 321 320 314 308 300 289 277 264 255 251 249 248 247 245 244 244 244 246 248 250 252 255 257 260 263 267 270 272 274 276 279 281 284 286 287 289 292
316 320 323 326 329 331 331 331 326 320 314 299 282 269 257 249 245 243 242 240 239 239 241 243 246 249 251 254 257 259 263 266 270 273 275 277 280 282 286 288 290 292 294
323 326 329 334 337 340 341 343 342 336 332 318 290 267 251 240 235 232 234 234 234 237 240 243 245 248 251 253 256 260 264 268 272 275 278 280 282 286 290 292 294 295 296
329 332 336 340 344 347 349 351 352 351 348 343 327 268 238 217 210 214 217 221 227 233 238 242 246 248 252 255 259 264 268 270 273 277 281 285 288 291 293 295 297 299 299
335 337 339 342 347 352 357 360 3 6 8 10 15 25 188 197 201 206 211 214 221 228 238 242 246 251 256 260 264 268 270 274 278 283 287 292 295 296 297 299 300 301 301
337 341 342 344 348 355 2 7 12 18 22 25 28 45 83 153 175 194 206 216 223 229 238 245 252 256 261 265 269 275 280 284 289 293 296 298 299 300 301 302 302 302 302
337 340 345 349 353 357 3 9 18 25 31 35 40 43 48 67 118 168 201 224 234 242 248 256 261 265 271 277 283 288 292 295 297 300 301 302 303 304 305 305 304 304 304
334 338 342 349 355 1 7 15 23 28 32 35 40 45 50 55 73 187 239 253 257 261 266 272 277 281 286 291 295 297 299 301 303 305 306 307 308 308 308 307 307 307 306
329 334 338 343 354 2 10 19 24 27 31 35 39 40 38 33 21 353 319 299 296 295 294 294 296 298 299 300 301 302 304 306 308 310 310 311 312 312 312 311 311 311 311
322 326 331 336 345 355 3 10 16 20 23 25 25 23 17 9 359 346 333 323 315 309 306 305 304 304 305 305 306 308 310 312 314 314 315 316 316 316 316 316 316 315 315
315 317 320 325 332 342 349 355 359 2 4 4 2 359 354 348 342 335 328 322 318 315 312 310 308 308 310 311 312 314 316 317 318 318 319 320 320 320 320 320 320 319 319
309 309 310 312 317 325 334 341 345 348 350 350 348 346 343 338 334 329 324 321 317 315 313 312 312 313 314 315 317 318 320 321 321 321 322 322 322 321 322 322 322 321 322
Height
5764 5764 5764 5765 5767 5768 5770 5771 5772 5773 5774 5776 5776 5778 5779 5780 5781 5781 5782 5782 5783 5784 5785 5785 5785 5785 5785 5785 5785 5784 5784 5783 5782 5782 5781 5779 5778 5776 5774 5772 5770 5769 5767
5755 5756 5756 5757 5758 5760 5761 5762 5763 5764 5765 5766 5767 5769 5770 5771 5772 5772 5772 5774 5776 5777 5776 5776 5776 5777 5777 5777 5777 5777 5776 5776 5775 5774 5773 5772 5771 5768 5766 5765 5763 5761 5759
5746 5747 5748 5749 5750 5751 5752 5753 5753 5754 5755 5756 5757 5759 5760 5761 5762 5763 5764 5766 5766 5767 5766 5767 5767 5768 5768 5768 5769 5769 5769 5768 5767 5766 5766 5764 5763 5761 5759 5756 5754 5753 5750
5737 5738 5739 5739 5740 5741 5741 5742 5743 5743 5744 5744 5745 5747 5749 5751 5752 5753 5754 5754 5755 5756 5756 5757 5758 5758 5759 5760 5760 5760 5760 5759 5758 5758 5757 5756 5754 5752 5750 5748 5745 5743 5741
5728 5729 5730 5730 5730 5730 5731 5731 5731 5731 5732 5732 5733 5734 5736 5738 5740 5740 5741 5743 5744 5745 5746 5747 5748 5749 5749 5750 5750 5750 5750 5750 5750 5749 5747 5746 5744 5742 5741 5739 5736 5734 5731
5720 5720 5721 5721 5721 5720 5720 5720 5720 5720 5719 5719 5720 5721 5723 5724 5725 5727 5728 5730 5732 5734 5735 5737 5738 5739 5739 5740 5740 5740 5740 5740 5740 5739 5738 5736 5734 5733 5731 5729 5726 5724 5721
5712 5712 5712 5712 5711 5711 5710 5709 5708 5707 5706 5706 5706 5706 5707 5709 5711 5713 5714 5716 5719 5721 5723 5725 5726 5727 5728 5729 5729 5729 5730 5730 5729 5728 5727 5726 5724 5722 5720 5718 5715 5712 5709
5704 5704 5703 5703 5702 5701 5699 5697 5695 5694 5692 5691 5690 5690 5691 5692 5694 5696 5698 5701 5704 5708 5710 5712 5714 5715 5717 5717 5718 5719 5719 5719 5718 5717 5716 5714 5713 5711 5708 5706 5703 5700 5697
5696 5695 5694 5693 5691 5689 5686 5684 5681 5679 5676 5674 5672 5672 5672 5673 5676 5678 5680 5685 5689 5692 5695 5698 5701 5703 5705 5706 5707 5707 5707 5707 5707 5706 5705 5703 5701 5699 5697 5694 5691 5689 5686
5687 5686 5684 5681 5679 5676 5673 5669 5665 5662 5658 5655 5653 5652 5652 5653 5656 5659 5663 5667 5672 5676 5680 5684 5687 5690 5692 5694 5695 5696 5696 5696 5695 5694 5693 5691 5689 5687 5685 5682 5678 5675 5672
5678 5676 5673 5670 5666 5662 5657 5653 5647 5643 5638 5634 5632 5631 5631 5632 5635 5639 5644 5649 5654 5660 5665 5669 5673 5676 5679 5681 5683 5684 5685 5684 5684 5683 5681 5680 5677 5675 5672 5669 5666 5662 5659
5669 5666 5663 5659 5654 5648 5642 5635 5628 5621 5615 5610 5608 5608 5609 5611 5614 5619 5625 5631 5638 5644 5649 5655 5659 5663 5666 5669 5671 5672 5673 5673 5673 5672 5670 5668 5665 5662 5659 5655 5652 5648 5644
5661 5657 5653 5648 5642 5635 5626 5617 5607 5599 5593 5588 5586 5586 5588 5592 5596 5602 5608 5615 5622 5629 5635 5641 5646 5650 5654 5657 5659 5661 5662 5662 5661 5660 5659 5656 5653 5650 5646 5642 5638 5633 5629
5653 5649 5644 5638 5631 5622 5612 5601 5591 5582 5576 5571 5569 5570 5573 5577 5581 5587 5594 5601 5608 5615 5622 5629 5634 5638 5642 5646 5648 5650 5651 5651 5650 5649 5647 5644 5641 5637 5632 5628 5623 5618 5612
5646 5642 5636 5630 5622 5613 5603 5592 5582 5573 5566 5562 5559 5560 5563 5567 5572 5577 5584 5590 5597 5605 5612 5618 5623 5628 5632 5635 5638 5639 5640 5640 5639 5637 5635 5632 5628 5624 5619 5614 5608 5603 5596
5640 5635 5629 5623 5616 5606 5597 5587 5577 5569 5562 5558 5556 5556 5558 5561 5566 5571 5576 5583 5590 5596 5603 5609 5614 5619 5623 5626 5628 5629 5630 5629 5628 5626 5623 5620 5615 5610 5605 5599 5593 5587 5579
5634 5630 5624 5618 5611 5603 5594 5585 5577 5569 5563 5559 5556 5556 5557 5559 5563 5568 5573 5578 5585 5591 5597 5602 5607 5611 5615 5617 5619 5620 5620 5619 5617 5615 5611 5607 5602 5597 5591 5585 5578 5570 5561
5630 5625 5620 5615 5609 5602 5594 5586 5578 5571 5566 5562 5559 5558 5558 5560 5563 5567 5572 5578 5583 5588 5593 5597 5601 5605 5608 5610 5611 5611 5610 5608 5606 5603 5599 5594 5589 5583 5578 5571 5563 5553 5544
5626 5622 5618 5613 5607 5601 5595 5587 5580 5575 5570 5566 5563 5561 5561 5563 5566 5569 5573 5577 5582 5586 5590 5594 5597 5600 5601 5603 5603 5602 5601 5599 5596 5591 5587 5582 5576 5570 5564 5556 5547 5538 5527
5623 5619 5615 5611 5606 5601 5596 5590 5584 5578 5574 5570 5568 5567 5566 5567 5569 5572 5575 5578 5582 5585 5588 5591 5593 5594 5595 5595 5595 5593 5591 5588 5585 5580 5575 5570 5563 5555 5547 5538 5529 5520 5509
5621 5617 5614 5610 5606 5601 5597 5592 5587 5582 5579 5576 5574 5572 5572 5572 5573 5575 5577 5580 5582 5584 5586 5587 5588 5589 5589 5588 5586 5584 5582 5578 5574 5569 5562 5556 5548 5539 5529 5520 5510 5500 5490
5618 5615 5612 5609 5606 5602 5598 5594 5590 5586 5583 5581 5579 5577 5577 5577 5577 5578 5579 5580 5581 5582 5583 5584 5584 5583 5582 5581 5579 5576 5573 5569 5563 5557 5549 5541 5532 5522 5512 5502 5491 5481 5471
5616 5614 5611 5608 5605 5602 5599 5596 5592 5590 5587 5584 5583 5581 5580 5580 5580 5580 5580 5580 5580 5580 5580 5580 5579 5578 5576 5573 5571 5567 5563 5557 5551 5543 5535 5525 5515 5505 5494 5484 5474 5464 5455
5614 5612 5610 5607 5605 5602 5600 5597 5594 5592 5589 5587 5585 5584 5583 5582 5581 5580 5579 5579 5578 5577 5577 5575 5574 5572 5569 5566 5562 5557 5552 5545 5538 5529 5520 5510 5499 5489 5478 5468 5459 5450 5443
5611 5609 5608 5606 5604 5602 5599 5597 5595 5593 5590 5588 5586 5585 5583 5582 5580 5579 5578 5577 5575 5574 5572 5570 5568 5565 5562 5558 5553 5547 5540 5533 5524 5515 5505 5496 5486 5476 5466 5457 5449 5441 5434
5609 5607 5605 5603 5602 5600 5598 5596 5594 5592 5590 5588 5586 5584 5582 5580 5579 5577 5575 5574 5572 5570 5567 5565 5561 5558 5553 5548 5543 5536 5528 5520 5512 5503 5493 5484 5475 5465 5456 5448 5440 5434 5427